STARLINK-1525, 46066

Orbit data source: Space-Track

STARLINK-1525, 46066 is a payload satellite owned by SpaceX/Seattle (US) in LEO that was launched on Fri, 07 Aug 2020 UTC via an FALCON 9 launch vehicle from the Air Force Eastern Test Range (AFETR). Payload-class satellites include a variety of spacecraft equipped with specific instruments for various scientific and technological missions. These include communications satellites like Starlink; space stations such as the ISS; scientific satellites like the Hubble; Earth observation satellites from companies like Planet Labs, Umbra, and HawkEye 360; GPS; miniature CubeSats for education and research; and military/defense satellites.

Loading next visibility...
Identifier
46066, 2020-055AR
Orbit
LEO
Country
Flag of USUS
Related business
Manufacturer
SpaceX/Seattle
Mission
Partially operational Commercial Communications
Bus & Motor
STARLINK, Unknown motor
Mass
260 kg wet, ~248 kg dry
Launch date (UTC)
2020-08-07 (6 years ago)
Launch vehicle
FALCON 9
Launch site
Air Force Eastern Test Range (AFETR)
Object type
Payload
Rocket body
Debris
Shape & HBR
Box + 1 Pan, 10.1 m
Radar Cross Section
13.562 m², Large (>1 m²)

Expand to show TLE details & history
Last TLE update: 10 hours ago

TLE from 10 hours ago
0 STARLINK-1525
1 46066U 20055AR  26219.97903272  .00091990  00000-0  15156-2 0  9991
2 46066  53.0469 103.6408 0001644 189.5827 170.5151 15.51578555332586
Epoch: 2026-08-07T23:29Z
TLE epoch observation values (Epoch: 2026-08-07T23:29:48.427Z)
Latitude
0.00005°
Longitude
154.69209°
Altitude
414.113 km
Speed
7.663 km/s
True Right ascension
06h 54m 33s
True Declination
0° 00' 00"
Sunlit
Object was in daylight at epoch
Visualization orbit readout
Latitude
Unknown
Longitude
Unknown
Altitude
Unknown
Speed
Unknown
Apparent Right ascension
Unknown
Apparent Declination
Unknown
Sunlit
N/A
Visualization observer readout
Local Sidereal Time
23:32:50
Azimuth
Unknown
Elevation
Unknown
Doppler factor
Unknown
Orbital elements
Apogee altitude
413.51 km
Perigee altitude
411.277 km
Semi-major axis
6,790.531 km
Eccentricity
0.00016
Inclination
53.0469°
RAAN
103.6408°
Arg. of periapsis
189.5827°
True anomaly
170.5182°
Mean anomaly
170.5151°
Eccentric anomaly
170.51665°
Mean motion
3.87871 °/min
Orbital period
92.81 mins
BSTAR
0.0015156
Loading maneuver chart data...
Computing Atmospheric mass density...
Loading historical data...
Loading historical data...
Loading historical data...
Loading historical data...
Loading historical data...
Loading historical data...
Loading historical data...

Documentation

Showing up to 5 results
|